TimePDT,TemperatureF,Dew PointF,Humidity,Sea Level PressureIn,VisibilityMPH,Wind Direction,Wind SpeedMPH,Gust SpeedMPH,PrecipitationIn,Events,Conditions,WindDirDegrees,DateUTC
12:53 AM,41.0,34.0,76,30.10,10.0,WNW,3.5,-,N/A,,Mostly Cloudy,300,2013-04-03 07:53:00
1:53 AM,39.0,33.1,79,30.11,10.0,West,4.6,-,N/A,,Clear,270,2013-04-03 08:53:00
2:53 AM,37.0,33.1,86,30.11,10.0,NNW,3.5,-,N/A,,Partly Cloudy,330,2013-04-03 09:53:00
3:53 AM,34.0,30.0,85,30.11,10.0,Calm,Calm,-,N/A,,Clear,0,2013-04-03 10:53:00
4:53 AM,30.9,28.0,89,30.13,10.0,West,5.8,-,N/A,,Clear,280,2013-04-03 11:53:00
5:53 AM,36.0,32.0,86,30.13,10.0,West,5.8,-,N/A,,Clear,270,2013-04-03 12:53:00
6:53 AM,28.0,25.0,88,30.16,10.0,NE,4.6,-,N/A,,Clear,50,2013-04-03 13:53:00
7:53 AM,39.9,34.0,79,30.17,10.0,Calm,Calm,-,N/A,,Clear,0,2013-04-03 14:53:00
8:53 AM,46.9,36.0,66,30.17,10.0,Calm,Calm,-,N/A,,Clear,0,2013-04-03 15:53:00
9:53 AM,52.0,37.9,59,30.16,10.0,Variable,3.5,-,N/A,,Clear,0,2013-04-03 16:53:00
10:53 AM,55.0,37.9,53,30.14,10.0,Calm,Calm,-,N/A,,Clear,0,2013-04-03 17:53:00
11:53 AM,59.0,37.9,46,30.14,10.0,South,10.4,18.4,N/A,,Clear,180,2013-04-03 18:53:00
12:53 PM,60.1,36.0,41,30.11,10.0,SSW,8.1,-,N/A,,Clear,200,2013-04-03 19:53:00
1:53 PM,61.0,37.0,41,30.11,10.0,Variable,5.8,-,N/A,,Clear,0,2013-04-03 20:53:00
2:53 PM,63.0,36.0,37,30.09,10.0,Calm,Calm,-,N/A,,Clear,0,2013-04-03 21:53:00
3:53 PM,64.9,34.0,32,30.06,10.0,Calm,Calm,-,N/A,,Clear,0,2013-04-03 22:53:00
4:53 PM,66.0,33.1,29,30.05,10.0,South,5.8,-,N/A,,Clear,170,2013-04-03 23:53:00
5:53 PM,64.0,32.0,30,30.03,10.0,Calm,Calm,-,N/A,,Clear,0,2013-04-04 00:53:00
6:53 PM,61.0,33.1,35,30.04,10.0,Calm,Calm,-,N/A,,Clear,0,2013-04-04 01:53:00
7:53 PM,51.1,35.1,54,30.03,10.0,North,4.6,-,N/A,,Clear,10,2013-04-04 02:53:00
8:53 PM,46.9,34.0,61,30.03,10.0,North,6.9,-,N/A,,Clear,350,2013-04-04 03:53:00
9:53 PM,45.0,35.1,68,30.02,8.0,West,5.8,-,N/A,,Clear,260,2013-04-04 04:53:00
10:53 PM,46.0,35.1,66,30.00,10.0,West,4.6,-,N/A,,Clear,280,2013-04-04 05:53:00
11:53 PM,46.9,36.0,66,29.98,10.0,West,4.6,-,N/A,,Partly Cloudy,260,2013-04-04 06:53:00